Inquirer Daily News

Weather

Get conditions and forecasts for any City, State, ZIP code or Country:  
Trenton, NJ
on Thursday, January 3, 2013

Thursday
Previous Day Next Day
Daily Summary
 ActualAverageRecord
Temperature
Mean Temperature °F 31°F  
Max Temperature 33°F 39°F 63°F (2000)
Min Temperature 23°F 23°F -4°F (1879)
Degree Days
Heating Degree Days 37 34  
Month to date heating degree days 104 101  
Since 1 July heating degree days 1862 1996  
Cooling Degree Days 0 0  
Month to date cooling degree days 0 0  
Year to date cooling degree days 0 0  
Moisture
Dew Point 15°F   
Average Humidity 59    
Maximum Humidity 68    
Minimum Humidity 49    
Precipitation
Precipitation 0.00 in 0.11 in 1.95 in (1999)
Month to date precipitation 0.00 0.33  
Year to date precipitation 0.00 0.33  
Wind
Wind Speed 4 mph   
Max Wind Speed 13 mph   
Max Gust Speed 18 mph   
Visibility 10 miles   
Events     

Key: T is trace of precipitation, MM is missing value
Source: NWS Daily Summary
Time(EST)TemperatureDew PointHumidity Pressure Visibility Wind DirectionWind SpeedGust SpeedPrecipitationEvents Conditions
12:53 AM 26.1°F 14.0°F 60% 30.18 in 10.0 miles NW 6.9 mph - N/A   Clear
1:53 AM 26.1°F 15.1°F 63% 30.17 in 10.0 miles NNW 3.5 mph - N/A   Clear
2:53 AM 26.1°F 15.1°F 63% 30.19 in 10.0 miles NNW 4.6 mph - N/A   Clear
3:53 AM 25.0°F 14.0°F 63% 30.18 in 10.0 miles NNW 3.5 mph - N/A   Clear
4:53 AM 24.1°F 14.0°F 65% 30.17 in 10.0 miles NNW 4.6 mph - N/A   Clear
5:53 AM 24.1°F 14.0°F 65% 30.17 in 10.0 miles Calm Calm - N/A   Clear
6:53 AM 23.0°F 14.0°F 68% 30.18 in 10.0 miles NNW 3.5 mph - N/A   Clear
7:53 AM 24.1°F 14.0°F 65% 30.17 in 10.0 miles NW 3.5 mph - N/A   Clear
8:53 AM 26.1°F 15.1°F 63% 30.19 in 10.0 miles NW 6.9 mph - N/A   Clear
9:53 AM 28.0°F 15.1°F 58% 30.19 in 10.0 miles NW 5.8 mph - N/A   Clear
10:53 AM 30.0°F 15.1°F 54% 30.17 in 10.0 miles NW 4.6 mph - N/A   Clear
11:53 AM 30.9°F 15.1°F 52% 30.14 in 10.0 miles West 8.1 mph - N/A   Clear
12:53 PM 30.9°F 15.1°F 52% 30.12 in 10.0 miles WNW 10.4 mph - N/A   Clear
1:53 PM 32.0°F 15.1°F 50% 30.10 in 10.0 miles NW 8.1 mph - N/A   Clear
2:53 PM 32.0°F 15.1°F 50% 30.09 in 10.0 miles West 6.9 mph - N/A   Clear
3:53 PM 32.0°F 15.1°F 50% 30.09 in 10.0 miles WNW 4.6 mph - N/A   Clear
4:53 PM 30.9°F 14.0°F 50% 30.10 in 10.0 miles WNW 4.6 mph - N/A   Mostly Cloudy
5:53 PM 30.0°F 14.0°F 51% 30.11 in 10.0 miles Calm Calm - N/A   Clear
6:53 PM 28.9°F 16.0°F 58% 30.12 in 10.0 miles WSW 4.6 mph - N/A   Clear
7:53 PM 28.9°F 16.0°F 58% 30.12 in 10.0 miles West 3.5 mph - N/A   Clear
8:53 PM 28.9°F 16.0°F 58% 30.10 in 10.0 miles Calm Calm - N/A   Clear
9:53 PM 28.0°F 17.1°F 63% 30.10 in 10.0 miles WNW 4.6 mph - N/A   Clear
10:53 PM 28.0°F 18.0°F 66% 30.11 in 9.0 miles West 3.5 mph - N/A   Mostly Cloudy
11:53 PM 28.9°F 18.0°F 64% 30.10 in 10.0 miles Calm Calm - N/A   Overcast
Astronomy
Sunrise:07:22 AM (EST) Moon Rise:11:19 PM (EST)1/3
Sunset:04:45 PM (EST) Moon Set:10:31 AM (EST)1/3
Moon Phase
Jan. 03 Jan. 04 Jan. 11 Jan. 18 Jan. 26

Copyright © 2014 The Weather Underground, Inc.